Location: Rounton
(54.4000°N, 1.3500°W)
Time: 21:11:23
(UTC+01:00)

deb Delta 126 - Pass Details

Date: 04 July 2022
Orbit: 1120 x 1970 km, 101.5° (Epoch: 17 August)

Event Time Altitude Azimuth Distance (km) Brightness Sun altitude
Rises 03:34:27 0° 71° (ENE) 4,687 ? -6.7°
Reaches altitude 10° 03:38:09 10° 56° (NE) 3,843 ? -6.4°
Maximum altitude 03:44:08 20° 15° (NNE) 3,313 ? -5.9°
Drops below altitude 10° 03:50:39 10° 335° (NNW) 4,229 ? -5.4°
Sets 03:54:58 0° 321° (NW) 5,315 ? -5.0°
